CW9193 Weather Reports


time (UTC)temp
C
wind
direction
speed
KPH
gust
KPH
rain 1hr
cm
rain 24hr
cm
rain mn
cm
humidity
%
barometer
mb
20260901114505 20 338 0.0 0.0 0.03 0.03 0.03 71 1011.2
20260901113006 19 338 0.0 0.0 0.03 0.03 0.03 71 1011.2
20260901111506 19 338 0.0 0.0 0.00 0.00 0.00 71 1011.0
20260901110010 19 338 0.0 0.0 0.00 0.00 0.00 71 1010.8
20260901104506 19 338 0.0 0.0 0.00 0.00 0.00 71 1010.8
20260901103005 19 338 0.0 0.0 0.00 0.00 0.00 71 1010.8
20260901101505 19 338 0.0 0.0 0.00 0.00 0.00 71 1011.0
20260901100004 19 338 0.0 0.0 0.00 0.00 0.00 72 1011.1
20260901094504 19 338 0.0 0.0 0.00 0.00 0.00 72 1011.2
20260901093004 19 338 0.0 0.0 0.00 0.00 0.00 72 1011.0
20260901091504 19 338 0.0 0.0 0.00 0.00 0.00 72 1011.1
20260901090008 19 338 0.0 0.0 0.00 0.00 0.00 72 1010.9
20260901084504 19 338 0.0 3.2 0.00 0.00 0.00 72 1010.6
20260901083004 19 338 0.0 0.0 0.00 0.00 0.00 72 1010.5
20260901081503 19 338 0.0 6.4 0.00 0.00 0.00 72 1010.4
20260901080003 19 338 0.0 0.0 0.00 0.00 0.00 72 1010.5
20260901074506 19 338 1.6 6.4 0.00 0.00 0.00 72 1010.3
20260901073002 19 338 0.0 0.0 0.00 0.00 0.00 72 1010.3
20260901071505 19 338 0.0 0.0 0.00 0.00 0.00 72 1010.4
20260901070003 19 338 1.6 4.8 0.00 0.00 0.00 72 1010.3
20260901064601 19 338 1.6 4.8 0.00 0.00 0.00 72 1010.3
20260901063102 19 338 0.0 4.8 0.00 0.00 0.00 72 1010.3
20260901061602 19 338 0.0 0.0 0.00 0.00 0.00 72 1010.2
20260901060001 19 338 0.0 4.8 0.00 0.00 0.00 72 1010.3
20260901054503 19 338 1.6 8.0 0.00 0.00 0.00 72 1010.1
20260901053001 19 280 1.6 6.4 0.00 0.00 0.00 72 1010.2
20260901051610 19 280 0.0 0.0 0.00 0.00 0.00 72 1010.2
20260901050100 19 280 0.0 0.0 0.00 0.00 0.00 72 1010.1
20260901044609 19 280 0.0 0.0 0.00 0.00 0.00 73 1010.1
20260901043100 19 280 0.0 0.0 0.00 0.00 0.00 73 1010.2
20260901041603 19 280 0.0 0.0 0.00 0.00 0.00 73 1010.3
20260901040111 19 280 0.0 0.0 0.00 0.00 0.00 73 1010.3
20260901034610 19 280 0.0 0.0 0.00 0.00 0.00 73 1010.2
20260901033100 19 280 0.0 0.0 0.00 0.00 0.00 73 1010.3
20260901031558 19 280 0.0 0.0 0.00 0.00 0.00 73 1010.2
20260901030058 19 280 0.0 0.0 0.00 0.00 0.00 73 1010.3
20260901024558 19 280 0.0 0.0 0.00 0.00 0.00 73 1010.6
20260901023106 19 280 0.0 4.8 0.00 0.00 0.00 73 1010.9
20260901021557 19 280 0.0 4.8 0.00 0.00 0.00 73 1010.8
20260901020057 19 280 0.0 6.4 0.00 0.00 0.00 73 1010.7
20260901014559 19 279 0.0 0.0 0.00 0.00 0.00 73 1010.4
20260901013056 19 279 1.6 8.0 0.00 0.00 0.00 74 1010.4
20260901011555 19 281 0.0 0.0 0.00 0.00 0.00 74 1010.5
20260901010055 19 281 0.0 0.0 0.00 0.00 0.00 74 1010.6
20260901004559 20 281 0.0 6.4 0.00 0.00 0.00 74 1010.4
20260901003055 20 289 0.0 6.4 0.00 0.00 0.00 74 1010.4
20260901001555 20 289 0.0 4.8 0.00 0.00 0.00 74 1010.3
20260901000053 20 290 0.0 8.0 0.00 0.00 0.00 74 1010.3
20260831234553 20 290 0.0 4.8 0.00 0.00 0.00 74 1010.0
20260831233055 20 294 0.0 6.4 0.00 0.00 0.00 74 1009.9
20260831231555 20 287 3.2 11.3 0.00 0.00 0.00 74 1010.1
20260831230101 20 299 4.8 11.3 0.00 0.00 0.00 74 1010.1
20260831224552 20 274 3.2 11.3 0.00 0.00 0.00 74 1010.0
20260831223053 20 295 3.2 11.3 0.00 0.00 0.00 74 1010.3
20260831221600 20 291 1.6 9.7 0.00 0.00 0.00 74 1010.2
20260831214553 20 351 0.0 6.4 0.00 0.00 0.00 75 1010.3
20260831213058 20 251 0.0 11.3 0.00 0.00 0.00 75 1010.2
20260831211601 20 243 1.6 8.0 0.00 0.00 0.00 74 1010.0
20260831210048 20 326 0.0 3.2 0.00 0.00 0.00 73 1010.2
20260831204553 20 285 0.0 9.7 0.00 0.00 0.00 73 1010.1
20260831203046 20 243 1.6 9.7 0.00 0.00 0.00 73 1010.2
20260831201545 20 356 4.8 12.9 0.00 0.00 0.00 73 1010.2
20260831200052 19 309 4.8 14.5 0.00 0.00 0.00 73 1010.6
20260831194544 19 346 4.8 11.3 0.00 0.00 0.00 73 1010.7
20260831193044 19 285 4.8 14.5 0.00 0.00 0.00 73 1011.0
20260831191542 19 267 4.8 11.3 0.00 0.00 0.00 73 1010.8
20260831190100 19 351 4.8 14.5 0.00 0.00 0.00 73 1010.7
20260831184540 19 339 4.8 12.9 0.00 0.00 0.00 73 1010.9
20260831183040 19 329 3.2 9.7 0.00 0.00 0.00 72 1010.9
20260831181537 19 288 1.6 8.0 0.00 0.00 0.00 72 1011.3
20260831180044 19 305 1.6 11.3 0.00 0.00 0.00 72 1011.4
20260831174538 19 280 1.6 12.9 0.00 0.00 0.00 72 1011.7
20260831173033 19 319 0.0 12.9 0.00 0.00 0.00 72 1011.4
20260831171532 19 301 4.8 12.9 0.00 0.00 0.00 72 1011.5
20260831170032 19 294 3.2 9.7 0.00 0.00 0.00 72 1011.4
20260831164543 18 294 4.8 9.7 0.00 0.00 0.00 73 1011.7
20260831163029 18 317 4.8 11.3 0.00 0.00 0.00 73 1011.7
20260831161528 18 326 4.8 12.9 0.00 0.00 0.00 73 1011.8
20260831160029 18 323 4.8 14.5 0.00 0.00 0.00 73 1011.9
20260831154533 18 309 4.8 11.3 0.00 0.00 0.00 73 1012.1
20260831153028 18 303 1.6 8.0 0.00 0.00 0.00 73 1011.9
20260831151525 18 307 1.6 8.0 0.00 0.00 0.00 73 1012.1
20260831150023 18 297 1.6 8.0 0.00 0.00 0.00 73 1012.3
20260831144522 18 274 1.6 11.3 0.00 0.00 0.00 73 1012.5
20260831143022 18 270 0.0 12.9 0.00 0.00 0.00 73 1012.4
20260831141518 18 307 0.0 4.8 0.00 0.00 0.00 73 1012.5
20260831140018 18 305 1.6 9.7 0.00 0.00 0.00 73 1012.6
20260831134516 18 303 3.2 11.3 0.00 0.00 0.00 73 1012.7
20260831133015 18 310 3.2 12.9 0.00 0.00 0.00 73 1012.9
20260831131512 18 323 8.0 14.5 0.00 0.00 0.00 73 1012.6
20260831130013 18 10 6.4 14.5 0.00 0.00 0.00 73 1012.5
20260831124511 18 308 4.8 12.9 0.00 0.00 0.00 74 1012.3
20260831123010 18 9 3.2 11.3 0.00 0.00 0.00 74 1012.3
20260831121510 18 287 6.4 11.3 0.00 0.00 0.00 74 1012.2
20260831120023 18 312 6.4 16.1 0.00 0.00 0.00 74 1011.8